sat.trackr.live / text

‹ back to catalog

TRANSPORTER-16 OBJECT BM

NORAD 68475 · 2026-067BM

PAYLOAD ACTIVE UNKNOWN

§ Identity

Operator
Country
TBD
Launch date
2026-03-30
Launch site
AFWTR
Launch vehicle
Mass (kg)
RCS (m²)

External: N2YO · Heavens-Above · Gunter

§ Orbital elements

Epoch: 2026-05-24T20:36:50.454720Z

Period
96.54 min
Inclination
97.7501°
Eccentricity
0.0005440
Mean motion
14.91586305 rev/d
Perigee alt
589.2 km
Apogee alt
596.8 km
Semi-major
6,971.1 km
B*
6.8270e-4
RAAN
103.3860°
Arg perigee
113.8941°
Mean anomaly
246.2848°
Rev number
772

§ Raw data

TRANSPORTER-16 OBJECT BM1 68475U 26067BM  26144.85891730  .00006798  00000+0  68270-3 0  99942 68475  97.7501 103.3860 0005440 113.8941 246.2848 14.91586305  7724

JSON: /api/v1/satellites/68475 · /tle

For live sub-satellite position, see the globe view (requires WebGL).

§ Visibility from observer

Set your observer location to see the next 7 days of passes ≥ 10°. The values pass through the URL so the page stays shareable.

No JS? Fill the form by hand. The geolocation button needs JavaScript.